Погода в Могильном Мысе

Россия / Томская область     58°07′16″N   82°48′43″E
темп.,
°C
ветер,
м/с
пор.,
м/с
влажн.,
%
обл.,
%
осадки,
мм/ч
давл.,
гПа
погр.,
м
12 апреля, пн
пн1201:00+1юз31095100 0.3 1033283
04:00+1юз41194100 0.0 1031375
07:00+1юз51385100 0.0 1028415
10:00+2зюз51480100 0.1 1027561
13:00+3зюз41286100 1.8 1025625
16:00+3з41194100 1.1 1024546
19:00+2з3997100 1.3 1025456
22:00+2зсз3994100 0.0 1026451
13 апреля, вт
вт1301:00+1сз4119223 0.1 1026512
04:00−1сз498636 0.0 1028542
07:00−2зсз3109630 0.0 1029313
10:00+1зсз488042 0.0 1029726
13:00+5зсз586885 0.1 10281493
16:00+5зсз5107097 0.6 10271454
19:00+3зсз41077100 0.8 1028775
22:00+1з3118581 0.0 1028381
14 апреля, ср
ср1401:00+1з41289100 0.1 1028423
04:000з3993100 0.1 1028276
07:000зюз3994100 0.1 1027266
10:00+2юз4896100 0.0 1025451
13:00+2юз51497100 3.0 1022822
16:00+6з51177100 0.4 10191204
19:00+4зсз51093100 0.5 10191051
22:00+3зсз3996100 0.1 1021648
15 апреля, чт
чт1501:00+2зсз3898100 0.1 1021524
04:00+2зсз2699100 0.0 1022409
07:00+2зюз1499100 0.0 1022180
10:00+3юз2597100 0.0 1021259
13:00+7юз4878100 0.0 1018727
16:00+9юз597389 0.0 1016953
19:00+9юз5138076 0.0 1013736
22:00+8юз5169172 0.0 1011519
16 апреля, пт
пт1601:00+8юз5148911 0.0 1009410
04:00+6з4118997 0.0 1009388
07:00+2ссз4895100 0.1 1012537
10:00+2ссз478199 0.1 1014838
13:00+3ссз464993 0.1 10161027
16:00+3ссз4647100 0.0 10171222
19:00+2ссз4654100 0.0 10181169
22:00−1ссв3761100 0.0 1019436